Tracking 35280 objects as of 7-Sep-2026
HD Live streaming from Space Station
objects crossing your sky now

SL-13 R/B


SL-13 R/B is no longer on orbit


NORAD ID: 9608
Int'l Code: 1976-121C
Launch date: December 15, 1976
Source: Commonwealth of Independent States (former USSR) (CIS)
Launch site: TYURATAM MISSILE AND SPACE COMPLEX (TTMTR)
Decay date: 1976-12-20

Note: This is a ROCKET BODY
Your satellite tracking list
Your tracking list is empty




NASA's NSSDC Master Catalog

Two Line Element Set (TLE):
1 09608U 76121  C 76354.83001591  .04133480 +00000-0 +00000-0 0  9995
2 09608 051.5929 088.9901 0010689 244.2283 115.7600 16.44124794000787
Source of the keplerian elements: AFSPC